Frisco, NC

5:11 PM EST on December 08, 2016 (GMT -0500)
Mitchell

Weather History for KHSE - November, 2011

Change the Weather History Date:

Tuesday, November 1, 2011

  Actual Average Record
Temperature  
Mean Temperature 58 °F 61 °F  
Max Temperature 62 °F 68 °F 81 °F (1971)
Min Temperature 54 °F 55 °F 40 °F (1968)
Degree Days  
Heating Degree Days 7 5  
Month to date heating degree days 7 5  
Since 1 July heating degree days 66 80  
Cooling Degree Days 0 1  
Month to date cooling degree days 0 1  
Year to date cooling degree days 2369 1691  
Growing Degree Days 8 (Base 50)    
Moisture  
Dew Point 50 °F    
Average Humidity 75    
Maximum Humidity 93    
Minimum Humidity 57    
Precipitation  
Precipitation 0.09 in 0.18 in 5.33 in (1985)
Month to date precipitation 0.09 0.18  
Year to date precipitation 54.16 49.00  
Snow  
Snow 0.00 in - - ()
Month to date snowfall 0.0  
Since 1 July snowfall 0.0  
Snow Depth 0.00 in    
Sea Level Pressure  
Sea Level Pressure 30.14 in    
Wind  
Wind Speed 11 mph (North)    
Max Wind Speed 20 mph    
Max Gust Speed 35 mph    
Visibility 9 miles    
Events Rain    
T = Trace of Precipitation, MM = Missing Value Source: NWS Daily Summary

Daily Weather History Graph

Daily Weather History Graph

Search for Another Location

Airport or City:

Trip Planner

Search our weather history database for the weather conditions in past years. The results will help you decide how hot, cold, wet, or windy it might be!

Date:

Astronomy

Nov. 01, 2011 Rise Set
Actual Time 7:23 AM EDT 6:08 PM EDT
Civil Twilight 6:57 AM EDT 6:34 PM EDT
Nautical Twilight 6:27 AM EDT 7:04 PM EDT
Astronomical Twilight 5:57 AM EDT 7:33 PM EDT
Moon 1:06 PM EDT (11/1) 11:49 PM EDT (11/1)
Length of Visible Light 11h 37m
Length of Day
10h 44m
Waxing Crescent, 39% of the Moon is Illuminated
Nov 1
Waxing Crescent
Nov 2
First Quarter
Nov 10
Full
Nov 18
Last Quarter
Nov 25
New

Hourly Weather History & Observations

Time (EDT) Temp. Dew Point Humidity Pressure Visibility Wind Dir Wind Speed Gust Speed Precip Events Conditions
12:48 AM 60.8 °F 57.2 °F 88% 30.04 in 4.0 mi NW 9.2 mph - 0.09 in Rain Heavy Rain
12:51 AM 61.0 °F 57.0 °F 87% 30.04 in 2.5 mi NNW 9.2 mph 17.3 mph 0.10 in Rain Heavy Rain
12:57 AM 60.8 °F 57.2 °F 88% 30.04 in 1.2 mi NW 8.1 mph 25.3 mph 0.11 in Rain Heavy Rain
1:04 AM 59.0 °F 55.4 °F 88% 30.04 in 2.0 mi NNW 13.8 mph 25.3 mph 0.18 in Rain Rain
1:07 AM 57.2 °F 55.4 °F 94% 30.04 in 3.0 mi NNW 10.4 mph 25.3 mph 0.19 in Rain Rain
1:18 AM 57.2 °F 55.4 °F 94% 30.04 in 5.0 mi NNW 12.7 mph 24.2 mph 0.21 in Rain Light Rain
1:25 AM 57.2 °F 53.6 °F 88% 30.06 in 8.0 mi NW 13.8 mph 27.6 mph 0.21 in Rain Light Rain
1:51 AM 55.0 °F 53.1 °F 93% 30.05 in 10.0 mi NNW 9.2 mph 25.3 mph 0.24 in Rain Light Rain
2:16 AM 55.4 °F 51.8 °F 88% 30.05 in 10.0 mi North 10.4 mph 25.3 mph 0.00 in Rain Light Rain
2:51 AM 55.0 °F 51.1 °F 86% 30.05 in 10.0 mi North 15.0 mph 27.6 mph 0.00 in   Mostly Cloudy
3:18 AM 55.4 °F 51.8 °F 88% 30.05 in 10.0 mi North 13.8 mph 26.5 mph N/A   Mostly Cloudy
3:51 AM 55.0 °F 51.1 °F 86% 30.06 in 10.0 mi North 12.7 mph 32.2 mph N/A   Overcast
4:51 AM 57.0 °F 51.1 °F 81% 30.07 in 10.0 mi NNE 16.1 mph 27.6 mph N/A   Overcast
5:39 AM 55.4 °F 50.0 °F 82% 30.09 in 10.0 mi NNE 15.0 mph 29.9 mph N/A   Overcast
5:47 AM 55.4 °F 50.0 °F 82% 30.09 in 10.0 mi NNE 15.0 mph 27.6 mph N/A   Overcast
5:51 AM 55.9 °F 50.0 °F 80% 30.09 in 10.0 mi NNE 13.8 mph 27.6 mph N/A   Overcast
6:51 AM 55.9 °F 50.0 °F 80% 30.11 in 10.0 mi North 13.8 mph 27.6 mph N/A   Overcast
7:51 AM 55.0 °F 48.9 °F 80% 30.14 in 10.0 mi North 10.4 mph 25.3 mph N/A   Mostly Cloudy
8:51 AM 55.9 °F 48.0 °F 75% 30.17 in 10.0 mi North 9.2 mph 18.4 mph N/A   Mostly Cloudy
9:51 AM 57.0 °F 48.0 °F 72% 30.19 in 10.0 mi NNW 8.1 mph 21.9 mph N/A   Mostly Cloudy
10:51 AM 59.0 °F 48.0 °F 67% 30.19 in 10.0 mi North 8.1 mph 17.3 mph N/A   Clear
11:51 AM 60.1 °F 48.9 °F 67% 30.20 in 10.0 mi NNW 8.1 mph - N/A   Clear
12:40 PM 60.8 °F 50.0 °F 68% 30.19 in 10.0 mi Variable 5.8 mph 17.3 mph N/A   Mostly Cloudy
12:51 PM 60.1 °F 50.0 °F 69% 30.19 in 10.0 mi Variable 6.9 mph - N/A   Mostly Cloudy
1:16 PM 60.8 °F 50.0 °F 68% 30.18 in 10.0 mi North 8.1 mph 21.9 mph N/A   Overcast
1:51 PM 60.1 °F 50.0 °F 69% 30.19 in 10.0 mi Variable 6.9 mph - N/A   Mostly Cloudy
2:51 PM 61.0 °F 48.9 °F 64% 30.19 in 10.0 mi North 10.4 mph 17.3 mph N/A   Mostly Cloudy
3:51 PM 61.0 °F 48.9 °F 64% 30.20 in 10.0 mi North 9.2 mph 16.1 mph N/A   Clear
4:51 PM 60.1 °F 48.9 °F 67% 30.22 in 10.0 mi North 10.4 mph 23.0 mph N/A   Clear
5:51 PM 57.9 °F 46.9 °F 67% 30.23 in 10.0 mi North 12.7 mph 20.7 mph N/A   Clear
6:51 PM 57.9 °F 45.0 °F 62% 30.26 in 10.0 mi NNE 11.5 mph 24.2 mph N/A   Partly Cloudy
7:51 PM 57.9 °F 43.0 °F 58% 30.28 in 10.0 mi NNE 11.5 mph 21.9 mph N/A   Clear
8:51 PM 57.0 °F 43.0 °F 59% 30.29 in 10.0 mi NNE 10.4 mph 21.9 mph N/A   Clear
9:51 PM 57.0 °F 43.0 °F 59% 30.30 in 10.0 mi NNE 10.4 mph 19.6 mph N/A   Clear
10:51 PM 57.0 °F 43.0 °F 59% 30.29 in 10.0 mi NNE 9.2 mph 18.4 mph N/A   Clear
11:51 PM 55.9 °F 42.1 °F 60% 30.29 in 10.0 mi NNE 8.1 mph - N/A   Clear